Wind_Speed
7 7 8 8 9 9 9 10 11 12 13 14 15 16 17 17 17 17 17 17 16 15 14 13 12 12 11 11 11 12 13 14 15 15 14 13 12 11 10 9 8 7 7 7 8 8 9 8 8 8 8 9 9 9 9 9 8 8 7 7 8 8 8 8 9 10 10 11 12
8 8 9 9 9 10 10 11 11 12 13 14 15 16 17 17 18 18 17 17 16 16 15 14 14 13 13 12 12 13 14 15 15 15 13 12 11 10 9 8 7 7 7 7 8 8 7 7 6 6 6 5 5 5 5 5 5 6 8 8 9 9 9 10 11 11 11 12 13
9 9 9 10 10 10 11 11 12 13 14 14 15 16 17 18 18 18 17 17 17 16 16 15 14 14 13 13 13 14 15 15 14 13 12 10 10 9 8 8 7 7 8 8 8 7 6 5 5 5 4 4 4 4 5 5 6 8 9 10 10 10 11 11 11 11 11 12 12
10 10 10 10 11 11 12 12 13 13 14 15 16 17 17 18 18 18 17 17 17 17 16 15 13 12 12 12 13 14 14 13 12 11 10 9 9 8 8 8 8 8 8 8 7 6 5 5 5 5 5 5 6 6 7 8 8 9 9 10 9 9 9 9 9 8 9 9 9
11 11 11 11 12 12 12 12 13 14 14 15 16 17 18 18 18 18 17 17 17 17 16 14 12 12 12 13 14 14 13 12 10 10 9 9 9 8 8 8 8 8 8 7 6 5 5 5 6 6 7 8 8 8 8 8 8 8 8 7 7 6 6 6 6 6 7 8 8
11 11 11 12 12 12 12 13 13 14 15 15 16 17 18 18 18 18 18 17 17 16 15 13 13 13 14 14 14 13 12 10 10 9 9 9 9 9 9 9 9 9 9 8 7 6 6 7 8 8 9 9 9 8 7 7 6 6 6 5 5 5 5 6 6 7 8 8 9
12 12 12 12 12 13 13 13 13 14 15 16 17 17 18 18 18 18 18 17 16 15 15 14 14 15 15 14 13 12 11 10 10 9 9 9 9 9 10 10 10 10 9 8 7 7 7 8 9 9 9 8 7 7 6 6 6 5 5 5 6 6 6 7 7 8 8 9 9
12 12 12 13 13 13 13 13 14 14 15 16 17 17 18 18 18 18 18 18 17 17 16 16 15 15 14 13 12 11 10 10 9 9 9 10 10 10 10 10 10 9 8 8 8 8 8 8 8 8 8 7 7 7 6 6 6 6 6 6 7 7 7 7 8 8 9 9 10
13 13 13 13 13 13 13 13 14 14 15 16 17 17 18 18 19 19 19 19 18 18 17 16 16 15 14 13 11 10 10 9 9 10 10 10 10 10 10 10 9 9 8 9 9 9 9 9 8 8 8 8 7 7 7 7 6 6 6 7 7 7 8 8 8 9 9 10 10
13 13 13 13 13 13 13 13 14 14 15 16 17 18 18 19 19 19 19 19 19 18 18 17 16 15 13 12 11 10 10 10 10 10 10 10 10 10 10 9 9 9 9 9 9 9 9 9 9 9 9 8 8 8 7 7 7 7 7 8 8 8 9 9 9 9 9 10 10
13 12 12 12 12 12 13 13 14 15 15 17 18 18 19 20 20 20 20 20 20 19 19 18 17 15 13 12 11 11 11 10 10 10 10 10 9 9 9 10 10 10 10 10 10 10 10 10 9 9 9 9 9 9 8 8 8 8 8 9 9 9 10 10 10 10 10 10 11
13 12 12 11 11 12 12 13 14 15 16 17 18 19 20 21 21 21 21 21 20 20 19 18 17 15 14 13 12 12 11 11 10 9 9 9 9 10 11 12 12 12 12 12 11 11 11 10 10 10 10 9 9 9 9 9 9 9 9 10 10 10 10 10 10 10 10 10 11
12 11 11 10 10 11 12 13 14 15 16 17 19 20 21 22 22 22 22 21 21 21 20 19 18 16 15 13 13 12 11 10 9 9 9 9 10 12 14 15 15 14 13 12 12 11 11 11 10 10 10 10 9 9 9 9 9 9 9 10 10 10 10 10 10 10 10 11 11
11 10 9 9 9 10 11 12 13 15 16 18 20 21 23 24 24 24 24 24 23 22 21 20 18 16 15 14 13 12 11 10 9 9 10 11 12 14 15 16 15 14 13 12 12 11 11 10 10 10 10 10 9 9 9 9 9 9 9 9 9 9 10 10 10 10 11 11 12
10 9 8 8 8 9 10 12 13 15 17 19 21 22 24 25 26 26 25 24 23 22 21 19 18 16 15 14 13 11 10 9 9 10 11 13 14 15 16 16 15 14 12 12 11 11 11 10 10 10 10 9 9 9 9 8 8 8 8 9 9 10 10 11 11 11 12 12 13
8 7 7 7 8 9 11 12 14 16 18 20 21 23 24 25 26 25 24 23 22 22 20 19 17 16 15 13 12 11 10 10 11 12 13 15 16 16 16 16 14 13 12 11 11 11 10 10 10 10 9 9 9 8 8 8 8 8 9 9 10 10 11 12 12 12 13 13 13
7 7 7 8 9 10 12 13 15 17 19 20 21 22 23 24 24 23 22 22 22 22 21 19 17 15 14 13 12 12 11 12 13 14 15 15 16 16 15 14 12 12 11 11 10 10 10 10 10 9 9 8 8 7 7 7 8 9 9 10 11 11 12 12 13 13 13 14 14
7 8 8 10 11 12 14 15 17 18 19 20 20 21 22 22 22 21 20 20 21 22 20 18 16 14 13 13 13 13 13 13 14 14 15 15 15 14 13 12 11 11 11 11 10 10 10 9 9 8 7 7 7 7 8 8 9 10 11 11 12 12 13 13 13 14 14 14 15
9 10 11 12 13 14 16 17 18 18 19 19 19 19 19 19 19 18 17 18 19 19 18 16 14 14 14 14 14 14 13 13 13 14 14 14 13 12 12 12 12 12 11 11 10 10 9 8 7 7 6 7 7 8 9 10 11 11 12 13 13 13 14 14 14 14 14 15 15
11 12 13 14 15 16 17 18 18 18 18 17 17 17 17 17 15 14 13 14 15 16 15 14 14 14 14 15 15 14 14 14 14 14 14 14 13 12 12 12 11 11 11 10 9 8 7 7 7 7 7 8 9 10 11 12 12 13 13 14 14 14 14 15 15 15 15 15 16
14 14 15 16 17 17 18 18 18 17 17 16 16 15 15 13 12 10 9 10 12 13 14 14 14 15 15 15 16 16 16 16 16 15 14 14 13 12 12 11 10 9 8 8 7 7 7 7 7 8 9 10 11 12 12 13 14 14 15 15 15 15 15 15 15 16 16 16 16
16 16 17 17 18 18 18 18 17 17 16 15 14 13 12 10 8 7 7 9 11 12 13 14 15 15 16 17 17 17 17 17 15 14 13 12 11 10 10 8 7 6 6 6 7 7 8 9 9 10 11 12 12 13 14 14 15 15 16 16 16 16 16 16 16 16 16 17 17
17 18 18 18 18 18 18 17 17 16 15 14 12 11 9 7 7 7 8 9 11 12 13 14 15 16 16 17 17 16 15 13 12 10 9 8 7 6 5 5 4 5 5 6 7 8 9 10 11 12 12 13 13 14 14 15 15 16 16 16 16 16 16 16 16 17 17 18 19
18 18 19 18 18 17 17 17 17 16 14 12 11 9 8 7 7 8 9 10 12 13 13 14 15 15 15 14 12 10 8 7 5 4 4 3 3 3 4 4 5 5 6 7 8 9 10 11 12 13 14 14 15 15 15 15 15 15 15 15 15 16 16 17 17 18 19 19 20
18 18 18 18 17 17 17 17 16 15 13 12 10 9 8 8 9 10 11 12 12 13 13 13 12 11 9 7 5 3 2 1 1 2 3 4 4 5 6 6 7 7 8 9 10 11 12 13 13 14 15 15 15 15 15 14 14 14 14 14 15 16 16 17 18 19 19 19 19
18 18 17 17 16 16 17 16 15 15 13 12 11 10 10 11 11 12 12 12 13 12 11 9 7 4 2 1 1 1 2 3 4 5 6 7 8 9 9 10 10 11 12 12 13 14 14 14 15 14 14 14 14 14 13 13 13 13 13 14 15 16 17 17 17 17 17 17 17
17 17 16 16 16 16 16 16 15 15 14 13 13 12 12 12 13 13 13 12 11 9 6 3 1 1 1 2 2 3 4 6 7 8 9 10 11 12 13 13 14 14 15 15 15 15 14 14 13 12 12 12 11 11 11 12 13 14 15 16 17 17 17 17 17 17 17 17 17
17 17 16 16 16 16 16 16 16 15 15 14 14 14 14 14 13 13 11 9 7 4 2 2 2 2 2 3 4 5 7 8 10 11 12 13 14 14 14 14 14 14 14 14 13 13 12 11 11 10 10 10 10 11 12 13 14 15 15 16 15 15 16 16 16 17 18 18 17
18 18 17 17 17 17 17 17 17 16 16 15 15 14 14 13 12 10 7 5 3 3 3 2 1 2 4 6 7 8 10 11 12 13 13 14 13 13 13 13 13 12 12 11 11 11 10 10 10 9 9 10 11 12 13 13 14 14 14 14 14 15 15 16 17 17 17 17 17
19 19 18 18 18 18 18 17 17 16 15 14 14 13 11 10 7 5 3 3 3 3 1 1 4 6 7 8 9 10 11 12 13 13 12 12 11 11 11 10 10 11 11 11 10 10 9 9 9 10 10 10 12 13 13 14 13 14 14 15 15 16 16 16 16 16 16 16 17
19 19 18 18 17 17 16 16 15 13 12 10 9 7 6 4 2 1 2 2 1 1 3 5 7 8 9 10 10 11 11 11 11 11 10 9 9 9 9 10 10 10 10 10 9 9 9 9 10 10 11 12 12 13 13 13 14 14 14 15 15 16 16 16 16 16 17 16 17
18 17 16 15 14 13 12 10 9 7 6 5 5 5 5 4 3 2 2 2 4 5 7 8 9 9 10 10 10 10 10 9 8 8 8 8 9 9 10 10 10 10 9 9 9 9 9 9 10 11 12 13 13 13 14 14 14 15 15 15 16 16 16 16 16 16 16 16 16
14 12 11 9 8 7 6 6 6 6 7 8 8 9 8 7 6 6 6 7 8 9 9 9 10 10 10 10 9 9 8 8 7 8 8 9 9 10 10 10 9 9 9 8 8 9 9 10 11 13 13 14 14 14 14 14 15 15 15 15 16 16 16 16 16 16 16 16 16
8 7 7 7 8 8 9 9 10 10 10 10 11 10 10 9 8 9 9 10 10 11 11 10 10 10 9 9 8 8 7 8 8 9 9 9 10 10 10 9 9 8 8 8 9 9 11 12 13 14 14 15 15 14 14 14 14 15 15 16 16 16 16 15 16 16 16 16 16
8 9 10 10 11 11 11 11 11 11 11 11 12 11 11 11 11 11 11 11 12 12 11 11 10 10 9 8 8 8 8 8 9 9 10 10 10 9 9 8 8 8 8 9 10 11 12 13 14 15 15 15 14 14 14 14 14 15 16 16 16 16 16 16 16 15 15 15 16
10 10 10 11 11 11 11 11 12 12 12 13 13 13 13 12 12 12 12 12 12 11 11 10 9 8 8 8 8 8 9 9 10 10 10 10 9 9 8 7 7 8 8 10 11 12 13 14 14 15 15 14 13 13 14 14 14 15 16 16 16 16 16 16 15 15 15 16 16
9 9 9 10 10 11 12 12 13 13 13 13 13 12 12 12 12 12 12 12 11 10 10 9 9 8 9 9 9 10 10 10 10 10 9 9 8 8 7 8 8 9 10 11 12 13 14 14 14 15 14 14 14 14 14 15 14 15 15 16 16 16 16 16 15 15 16 16 16
8 8 9 10 11 12 12 13 14 14 14 13 12 12 12 12 11 11 10 10 9 9 9 9 9 9 10 10 11 10 10 10 10 9 8 8 7 8 8 9 10 11 12 12 13 14 14 14 14 14 14 14 14 15 15 15 15 15 16 16 16 16 16 15 15 15 16 16 17
8 9 10 12 12 13 13 14 14 14 13 12 12 11 11 11 10 9 9 9 9 9 9 10 10 10 11 11 11 10 10 10 9 8 7 7 7 8 9 10 11 12 13 14 14 14 14 14 14 14 14 14 14 14 15 15 15 16 16 16 16 16 15 15 15 15 16 16 17
10 11 12 13 13 13 13 13 12 12 11 10 10 10 9 9 8 8 9 9 9 10 10 10 11 11 11 11 10 10 9 9 8 8 7 7 8 9 10 11 12 13 14 14 15 15 15 15 14 14 14 14 14 14 14 15 15 16 16 15 15 15 16 16 16 16 17 17 17
11 12 12 13 13 13 12 11 10 9 9 9 8 8 8 8 9 9 9 10 10 10 11 11 11 11 10 10 10 9 9 8 8 7 7 8 8 9 10 12 13 14 15 15 15 15 15 15 14 14 14 14 14 14 14 15 15 15 15 15 16 16 17 18 18 18 17 17 17
Wind_Direction
279 287 294 298 299 298 296 296 297 297 298 298 298 298 297 296 294 293 293 293 293 290 287 281 273 264 254 244 233 222 214 207 200 196 195 197 201 207 214 222 232 246 263 280 293 302 306 307 306 301 295 290 286 281 276 271 264 254 245 239 236 233 231 231 235 238 242 245 247
277 284 289 292 292 291 290 291 292 294 295 295 296 295 294 292 291 290 290 291 290 289 284 278 269 258 246 233 220 210 203 199 196 197 200 206 214 222 231 240 252 266 280 293 301 305 305 303 297 291 285 282 279 277 271 262 252 244 241 242 244 246 245 243 244 247 249 251 253
277 283 285 287 286 285 285 287 289 291 292 293 293 292 291 289 288 288 288 289 289 287 283 275 264 250 235 219 206 199 197 197 199 204 212 221 230 240 248 258 270 282 292 299 302 301 296 287 278 270 267 269 269 269 266 259 252 248 248 251 253 254 254 252 252 253 253 254 255
278 281 282 282 282 282 283 285 287 289 290 290 290 289 288 287 286 286 287 287 287 285 280 271 255 238 223 212 202 197 197 202 209 218 229 238 246 254 262 271 282 290 296 299 297 290 279 268 263 262 265 267 268 267 266 264 260 257 257 257 257 257 256 255 255 255 254 255 255
277 280 281 281 281 281 281 282 284 285 287 287 287 286 285 285 284 284 284 285 283 281 275 263 247 232 222 216 208 204 205 213 224 234 243 250 255 261 269 277 285 291 293 292 284 273 262 259 261 266 268 270 269 268 267 265 262 259 257 255 253 251 251 252 253 254 256 258 259
276 278 279 279 279 278 279 280 281 283 284 284 284 283 283 283 282 281 281 280 279 275 266 253 241 230 221 214 211 212 218 227 235 243 249 253 258 264 271 278 283 286 285 280 270 260 256 258 263 266 268 268 267 264 260 255 251 249 248 247 247 248 251 254 256 258 260 262 264
275 276 277 277 277 277 278 279 281 282 282 282 282 281 281 281 280 279 277 276 272 265 255 244 231 222 217 215 218 223 230 235 240 245 250 254 260 265 271 276 278 277 273 267 258 253 252 255 260 263 263 261 257 252 247 243 242 243 247 251 255 257 260 261 262 263 264 266 267
273 275 276 277 277 277 278 279 281 281 281 281 281 281 281 280 278 276 274 271 265 258 249 239 229 223 221 223 228 232 235 238 241 245 250 255 260 266 269 271 270 264 256 251 247 247 249 252 255 257 256 253 249 246 246 248 251 254 258 262 265 267 267 267 266 267 267 267 268
272 275 276 277 278 278 280 281 282 281 281 281 281 282 281 280 278 274 271 267 263 257 250 243 236 230 228 231 234 236 238 240 242 245 250 255 260 263 264 262 256 250 246 244 244 245 249 252 253 253 253 252 252 254 258 263 267 270 272 273 275 276 276 274 272 270 269 269 268
272 275 277 278 279 280 282 283 283 283 282 282 283 283 282 280 277 273 269 265 262 258 252 246 240 235 233 235 237 237 238 239 241 244 249 253 257 258 256 253 249 247 246 247 248 250 252 255 256 256 258 260 263 266 271 275 279 282 283 283 283 282 280 279 277 274 272 270 269
272 275 277 279 281 282 283 284 284 285 284 285 285 285 283 281 277 273 268 265 261 256 251 246 241 238 237 238 238 237 237 238 241 245 250 256 259 261 262 261 260 256 254 254 254 256 257 259 260 262 264 268 272 275 278 281 285 286 286 285 285 283 282 281 280 278 275 274 273
270 273 276 279 282 284 285 286 287 287 287 287 288 287 285 282 279 274 268 262 258 254 251 246 243 241 240 240 239 238 238 240 245 251 259 266 269 275 279 278 274 267 262 260 260 262 262 264 265 267 269 272 276 279 282 284 286 286 286 285 285 285 284 284 284 282 280 279 277
269 272 276 280 284 288 290 290 291 291 291 291 291 290 288 285 281 276 270 263 258 254 250 247 244 243 243 242 241 241 242 246 252 260 268 273 276 281 285 283 276 268 263 263 264 265 266 267 268 270 273 276 279 282 284 285 286 286 286 286 287 288 288 289 288 287 285 283 281
268 273 278 284 289 293 296 297 298 297 297 296 295 294 291 288 284 279 273 266 261 255 250 246 243 243 243 244 244 244 246 251 259 267 274 279 282 284 283 279 271 265 263 265 267 268 270 271 272 274 276 279 282 284 285 286 287 287 288 290 291 292 293 294 292 290 288 285 283
271 275 282 289 296 300 303 305 305 304 303 301 299 297 294 291 287 282 275 267 259 254 249 245 242 242 243 244 244 245 248 254 264 274 281 285 286 285 281 273 267 264 264 266 269 271 272 273 275 277 279 281 283 285 286 288 289 291 293 294 295 296 296 295 293 291 288 286 284
274 281 289 297 302 306 308 309 309 308 306 304 302 299 297 294 292 287 278 268 259 253 248 244 242 242 243 243 243 245 250 259 269 278 284 287 286 283 276 269 266 266 267 268 270 271 273 275 276 278 280 282 283 286 289 292 295 296 297 297 297 296 295 294 292 289 287 285 282
280 288 297 303 307 309 310 311 310 309 307 305 303 301 300 298 295 290 281 269 259 251 246 242 242 242 242 241 242 246 254 264 273 279 283 284 282 277 271 267 265 266 266 267 269 271 273 274 276 278 280 283 286 290 294 297 299 299 299 298 296 295 293 292 290 287 285 284 282
292 300 304 307 310 311 312 311 310 308 307 306 305 304 303 302 299 294 284 271 258 249 244 241 241 241 240 240 242 248 256 265 271 277 279 279 276 271 266 264 262 262 263 265 267 269 271 272 274 277 281 287 291 295 299 300 301 301 300 298 296 294 293 291 289 286 284 283 282
306 309 310 311 311 312 312 311 310 308 307 307 307 307 307 306 304 298 287 272 257 247 240 237 237 237 238 241 245 252 259 265 270 275 277 276 271 265 260 258 258 259 261 263 265 266 267 269 273 278 284 290 295 299 301 302 303 302 301 299 297 295 293 291 289 287 285 283 283
313 312 311 311 311 311 311 310 309 309 309 309 309 310 310 309 307 300 287 269 252 240 234 233 234 236 240 245 252 259 265 270 274 277 277 273 267 260 256 254 255 256 259 261 262 264 266 269 275 281 287 293 298 301 303 304 304 303 301 299 297 295 293 291 289 287 286 285 285
313 312 311 310 310 310 309 309 309 310 310 311 312 312 312 311 307 297 277 256 240 233 232 235 238 241 246 252 260 266 272 276 278 278 274 269 261 256 253 252 253 255 258 261 265 268 273 278 283 289 294 298 301 304 306 306 305 304 302 300 298 296 293 291 289 288 287 287 286
312 311 310 309 309 309 309 309 310 310 311 312 313 313 312 309 300 281 256 240 234 233 236 241 245 251 257 264 270 275 278 279 278 274 268 262 255 251 250 251 255 260 267 272 278 283 287 291 294 297 301 304 306 307 307 307 305 303 302 299 297 294 292 290 289 289 288 288 287
309 309 307 307 307 308 309 310 311 311 312 312 312 311 307 298 282 261 247 240 239 242 246 251 257 264 271 276 280 282 282 279 273 266 260 254 251 253 259 267 277 286 291 293 294 297 298 300 302 304 306 308 308 308 307 305 303 300 298 295 293 291 290 290 290 290 290 290 290
306 305 304 304 305 308 310 311 311 311 310 309 306 302 293 280 266 255 249 249 252 256 261 267 273 278 282 285 286 284 280 274 266 261 261 268 282 298 309 313 312 309 306 303 301 301 302 304 306 307 309 309 308 307 304 301 298 294 292 291 290 291 292 293 293 293 293 293 292
302 302 301 302 305 309 311 311 310 308 305 300 295 288 278 267 259 256 258 262 267 273 278 282 285 288 289 288 286 281 280 295 322 335 334 332 330 329 327 324 318 312 307 305 304 304 306 308 309 310 309 308 306 303 300 295 291 289 289 291 292 294 295 296 296 295 295 294 293
300 300 299 302 306 309 309 308 304 300 294 288 282 274 266 262 262 266 272 278 283 287 289 291 290 287 285 286 46 35 19 3 352 343 336 330 326 323 321 318 315 312 311 311 311 312 313 313 313 311 307 303 298 294 291 289 290 291 293 295 297 297 297 297 296 295 295 294 293
301 300 300 302 305 305 302 298 293 287 281 276 271 266 265 267 272 279 285 290 293 293 290 280 249 141 104 75 35 8 354 344 336 329 324 320 317 315 314 314 315 315 316 317 317 317 316 314 310 304 298 292 289 288 289 292 295 297 298 298 298 298 296 296 295 296 296 296 295
301 300 300 300 299 296 292 286 281 276 273 270 269 269 273 278 284 289 293 294 291 280 241 175 140 101 46 8 350 340 333 327 322 319 316 314 313 313 313 314 316 317 318 317 315 313 309 305 299 294 290 288 290 293 296 298 299 300 300 299 298 296 296 296 296 297 297 297 297
302 301 298 294 290 286 283 279 277 275 275 276 277 280 284 289 293 294 291 282 251 195 166 144 64 0 347 340 333 327 322 319 317 315 314 313 313 313 314 314 314 314 311 308 304 300 297 294 293 293 294 296 298 300 301 301 300 300 299 298 297 297 297 296 297 297 297 297 297
302 299 294 288 285 284 283 283 284 285 286 288 291 293 297 300 300 290 262 219 181 166 160 344 341 340 337 331 326 323 320 318 317 316 315 314 312 310 309 308 304 301 298 296 294 294 294 295 297 301 303 303 303 303 303 301 300 299 298 298 297 297 297 296 296 296 296 296 296
302 298 294 291 290 292 293 294 295 297 300 304 309 315 321 327 323 230 181 168 152 13 340 336 337 336 332 327 326 325 323 321 319 316 312 307 302 297 295 296 294 292 292 294 295 297 299 302 305 307 309 309 307 305 302 300 299 297 296 296 296 296 296 296 296 296 295 295 295
304 303 302 302 305 307 309 312 317 324 338 355 11 23 32 44 58 68 57 23 0 352 347 342 339 335 332 331 330 327 325 321 313 304 295 290 288 290 291 293 294 296 298 300 302 304 307 309 312 313 313 312 309 305 302 299 297 296 294 293 293 294 294 295 295 295 294 294 294
313 316 320 327 336 345 358 14 30 42 50 53 52 51 49 48 40 26 10 359 353 350 348 344 341 337 334 331 327 322 316 308 298 290 286 287 290 293 297 299 301 302 305 307 309 311 314 316 316 317 315 313 309 304 300 297 296 295 294 293 294 294 294 294 293 293 293 292 291
345 360 15 29 39 47 53 58 59 59 56 52 48 42 36 28 17 6 359 354 351 349 346 342 339 334 330 325 318 311 303 296 292 292 293 296 299 302 304 305 307 309 312 315 317 319 320 320 319 318 315 312 307 302 298 296 295 294 294 294 294 295 295 294 294 292 291 290 289
44 50 55 58 59 59 58 56 52 48 43 38 32 26 20 13 6 1 355 352 349 345 341 337 333 328 324 319 313 307 301 298 299 301 303 305 306 307 307 309 312 316 320 322 323 323 323 321 319 317 314 310 304 299 297 296 295 294 294 295 295 296 296 295 293 291 290 289 288
57 57 57 55 52 48 44 41 38 35 32 28 23 19 13 8 3 357 352 347 342 338 334 331 328 324 320 315 312 309 308 308 309 310 310 310 310 310 311 314 319 323 326 327 327 325 323 321 319 316 313 308 303 299 299 298 297 296 296 297 297 297 296 295 293 291 290 289 289
50 47 45 43 40 38 35 33 32 31 29 25 20 14 8 1 355 350 345 341 337 335 333 332 328 323 320 319 318 317 316 316 315 315 314 314 314 316 318 321 325 327 329 329 328 327 324 322 319 316 313 308 304 302 301 300 299 298 299 299 298 297 296 295 293 292 291 290 290
39 40 40 42 41 38 35 33 31 28 25 19 13 6 359 352 348 344 341 339 338 336 333 331 327 324 323 324 324 322 321 320 320 320 319 319 320 323 325 328 329 330 331 331 331 329 326 323 320 317 313 308 305 303 302 301 300 300 300 300 299 298 297 296 295 295 294 293 292
46 48 48 46 43 39 35 32 29 24 18 11 4 358 352 347 345 342 339 337 335 332 329 327 324 324 325 327 328 326 324 324 324 325 325 326 328 329 332 333 332 332 333 334 333 331 327 324 320 317 314 309 306 304 302 302 301 301 300 300 299 299 299 299 298 298 297 296 294
53 48 44 41 38 34 31 28 25 19 12 4 356 350 346 342 338 335 332 330 329 326 324 323 323 324 326 329 331 330 329 329 329 330 331 333 334 335 336 336 335 335 334 335 334 331 328 324 320 318 315 311 307 305 303 302 301 301 300 301 302 303 303 302 301 300 299 297 295
43 39 36 34 32 30 26 22 17 11 3 353 345 339 336 332 330 328 328 327 325 323 323 322 324 326 330 333 336 337 336 335 335 335 336 337 338 339 339 338 337 336 335 335 333 331 327 324 321 318 316 313 309 306 303 303 301 301 302 304 305 306 305 304 302 301 299 297 295
Height
811 810 810 810 810 810 810 809 809 809 809 809 809 808 808 808 807 807 806 806 805 804 804 803 803 802 802 802 802 802 802 802 802 802 803 803 803 803 803 803 803 803 803 803 803 803 803 803 803 803 803 803 802 802 802 802 802 802 802 802 802 802 803 803 803 804 804 804 804
810 809 809 809 809 809 808 808 808 808 808 808 808 807 807 806 806 806 805 805 804 803 803 802 802 801 800 800 800 800 801 801 801 802 802 802 802 802 802 802 802 802 802 802 802 802 802 802 802 802 802 802 802 802 801 801 801 802 802 802 802 802 802 802 802 802 802 803 803
808 808 808 808 808 808 807 807 807 807 807 807 806 806 806 805 805 805 804 804 803 802 802 801 800 800 800 800 800 800 800 801 801 801 801 801 801 801 801 801 801 801 801 801 801 801 801 801 801 801 801 801 801 801 801 801 801 801 801 801 801 801 801 801 801 801 801 801 801
807 807 807 807 807 807 806 806 806 806 806 806 805 805 805 805 804 804 803 803 802 801 801 800 800 799 799 799 799 799 800 800 800 800 800 800 800 800 801 800 800 800 800 800 800 800 800 800 800 800 800 800 800 800 800 800 800 800 800 800 800 800 800 800 800 800 800 800 800
806 806 806 806 806 806 805 805 805 805 805 805 804 804 804 804 803 803 802 802 801 800 800 800 800 799 799 799 799 799 799 799 800 800 800 800 800 800 800 800 800 800 799 799 799 799 799 799 799 800 800 800 800 800 800 800 799 799 799 799 799 799 799 799 799 799 799 799 799
805 805 805 805 805 805 804 804 804 804 803 803 803 803 803 802 802 802 801 800 800 800 799 799 799 799 798 798 798 798 798 798 799 799 799 799 799 799 799 799 799 799 798 798 798 798 798 798 798 799 799 799 799 799 799 799 798 798 798 798 798 798 798 798 798 798 798 798 798
804 804 804 804 803 803 803 803 802 802 802 802 802 802 801 801 801 800 800 799 799 799 798 798 798 797 797 797 797 797 797 797 797 798 798 798 798 798 798 798 798 797 797 797 797 797 797 797 797 798 798 798 798 798 798 798 797 797 797 797 797 797 797 797 797 797 797 797 797
803 802 802 802 802 802 801 801 801 801 801 801 800 800 800 800 800 799 799 798 798 797 797 797 797 796 796 796 796 796 796 796 796 797 797 797 797 797 797 797 797 796 796 796 796 796 796 796 796 796 797 797 797 797 797 796 796 796 796 796 796 796 796 796 796 796 795 795 795
801 801 801 801 801 801 800 800 800 800 800 800 799 799 799 799 798 798 797 797 796 796 796 796 796 796 795 795 795 795 795 795 795 796 796 796 796 796 796 796 796 795 795 795 795 795 795 795 795 795 795 796 796 796 795 795 795 795 795 795 795 795 795 795 795 794 794 794 794
800 800 800 800 800 800 799 799 799 798 798 798 798 798 798 797 797 796 796 796 795 795 795 795 795 795 795 795 795 794 794 794 795 795 795 795 795 795 795 795 795 795 794 794 794 794 794 794 794 794 794 795 795 794 794 794 794 794 794 794 794 794 793 793 793 793 793 792 792
799 799 799 798 798 798 798 798 797 797 797 797 797 797 796 796 795 795 795 795 794 794 794 794 794 794 793 793 793 793 793 793 794 794 794 794 794 795 795 795 794 794 794 793 793 793 793 793 793 793 793 793 793 793 793 793 793 792 792 792 792 792 792 792 792 791 791 791 791
797 797 797 797 797 797 797 797 796 796 796 796 795 795 795 794 794 794 793 793 793 793 793 793 793 792 792 792 792 792 792 792 792 793 793 793 793 793 793 793 793 793 793 792 792 792 792 791 792 792 792 792 792 792 791 791 791 791 791 791 791 791 790 790 790 790 790 790 789
795 795 795 795 795 795 795 795 795 795 795 795 794 794 793 793 792 792 792 791 791 791 791 791 791 791 791 791 791 791 791 791 791 792 792 792 792 792 792 792 792 792 792 791 791 791 790 790 790 790 791 790 790 790 790 790 790 790 790 790 790 789 789 789 789 789 789 788 788
794 794 794 794 794 794 794 794 794 794 793 793 793 792 792 791 791 790 790 790 790 790 790 790 790 790 790 790 790 790 790 790 790 790 790 791 791 791 791 791 791 791 790 790 790 790 790 790 790 790 790 790 789 789 789 789 788 788 788 788 788 788 788 788 788 787 787 787 787
793 793 793 793 793 793 793 792 792 792 792 791 791 790 790 789 789 788 788 788 788 788 788 789 789 789 789 789 789 789 789 789 789 790 790 790 790 790 790 790 790 790 789 789 789 789 789 789 789 788 788 788 788 788 787 787 787 787 787 787 787 787 787 786 786 786 786 785 785
793 792 792 792 792 792 791 791 791 790 790 790 789 789 788 787 787 786 786 786 787 787 787 787 787 787 788 788 788 788 788 788 788 788 788 788 788 788 788 788 788 788 788 788 788 788 788 787 787 787 787 787 787 786 786 786 786 785 785 785 785 785 785 785 785 785 785 784 784
792 792 792 792 792 791 791 790 790 789 789 788 787 787 786 785 785 784 784 785 785 785 785 786 786 786 786 787 787 787 787 787 787 787 787 787 787 787 787 787 787 787 787 787 787 787 786 786 786 786 786 786 785 785 785 785 785 785 785 784 784 784 784 784 783 783 783 783 782
792 792 792 792 791 791 790 790 789 788 787 787 786 785 784 783 783 782 782 782 783 783 784 785 785 785 785 785 785 785 785 785 785 785 785 785 785 785 785 785 785 785 785 785 785 785 785 785 785 785 785 785 784 784 784 784 784 783 783 783 783 783 782 782 782 782 781 781 780
793 793 792 792 791 790 790 789 788 787 786 785 785 784 783 782 781 780 780 780 781 782 783 784 784 785 785 785 785 785 785 784 784 784 784 784 784 784 784 784 784 784 784 784 784 784 784 784 784 784 784 784 783 783 783 782 782 782 782 782 781 781 781 780 780 780 780 779 779
793 793 792 791 791 790 789 788 787 786 785 785 784 783 782 781 780 779 779 779 780 781 782 783 783 783 784 784 784 783 783 783 783 783 783 782 782 782 782 782 782 782 782 783 783 783 783 783 783 783 783 782 782 782 781 781 781 781 780 780 780 780 779 779 779 778 778 778 777
793 792 792 791 790 789 788 787 787 786 785 784 783 782 781 780 779 779 779 779 780 781 781 782 782 783 783 783 783 782 782 782 782 782 781 781 781 781 780 781 781 781 781 781 782 782 782 782 782 782 781 781 781 780 780 780 780 779 779 779 779 778 778 778 777 777 776 776 775
793 792 791 790 789 788 787 787 786 785 784 783 782 781 780 780 779 779 779 779 780 780 781 781 782 782 782 782 782 781 781 781 781 780 780 780 780 780 780 780 780 780 780 780 781 781 781 781 781 780 780 780 780 779 779 779 778 778 778 777 777 777 776 776 775 775 775 774 774
792 791 790 789 788 787 787 786 785 785 784 783 782 781 780 780 779 779 779 779 780 780 780 780 781 781 781 781 781 780 780 780 780 780 780 780 780 780 780 780 780 780 780 780 780 780 780 780 780 779 779 779 778 778 778 777 777 776 776 776 775 775 775 774 774 774 773 773 772
790 790 789 788 787 786 786 785 785 784 783 783 782 781 780 780 779 779 779 779 779 779 780 780 780 780 780 780 780 780 780 780 780 780 780 780 780 780 780 780 780 779 779 779 780 780 779 779 779 778 778 777 777 776 776 775 775 775 775 774 774 774 773 773 772 772 771 771 770
789 788 787 786 785 785 785 784 784 783 783 782 781 780 780 779 779 779 779 779 779 779 779 779 779 779 779 779 779 779 780 780 780 780 780 780 780 780 780 780 779 779 779 779 779 778 778 778 777 777 776 775 775 775 774 774 774 773 773 773 772 772 771 771 770 770 770 769 769
787 786 785 785 784 784 784 783 783 782 782 781 780 780 779 779 779 779 778 778 778 778 778 777 777 778 778 778 779 779 779 779 780 780 780 780 780 780 779 779 778 778 778 777 777 777 776 776 775 775 775 774 774 773 773 772 772 772 772 771 771 770 770 769 769 768 768 767 766
785 785 784 783 783 783 782 782 781 781 780 780 779 779 778 778 778 778 778 777 777 777 777 777 777 777 777 778 778 778 778 779 779 779 779 779 779 779 778 778 777 777 776 776 775 775 775 774 774 774 773 773 773 772 772 771 771 771 770 770 769 769 768 768 767 766 765 765 764
784 783 783 782 782 781 781 780 780 779 779 778 778 778 777 777 777 777 776 776 776 776 776 776 776 776 777 777 777 777 777 777 778 778 778 778 778 777 777 776 776 775 775 774 774 774 773 773 773 772 772 772 771 771 771 770 770 769 769 768 768 767 767 766 765 765 764 763 762
783 782 781 781 780 780 779 779 778 778 778 777 777 777 777 776 776 776 775 775 775 775 776 776 776 776 776 776 776 776 776 776 776 777 777 776 776 776 776 775 775 774 774 773 773 773 772 772 772 771 771 771 770 770 770 769 769 768 768 767 766 766 765 765 764 763 762 761 760
781 781 780 779 779 778 778 778 777 777 777 777 776 776 776 775 775 775 775 775 775 775 775 775 775 775 775 775 775 775 775 775 775 775 775 775 775 775 775 774 774 773 773 772 772 772 771 771 770 770 770 770 769 769 768 768 767 767 766 765 765 764 764 763 762 761 761 760 759
780 779 779 778 778 777 777 777 777 776 776 776 776 776 775 775 775 775 775 775 775 775 775 775 775 775 774 774 774 774 774 774 775 775 775 774 774 774 774 773 772 772 771 771 771 770 770 770 770 769 769 768 768 768 767 766 766 765 765 764 763 763 762 761 760 760 759 758 758
779 778 778 777 777 776 776 776 776 776 775 775 775 775 776 776 776 776 776 776 775 775 774 774 774 774 774 774 773 773 774 774 774 774 774 773 773 773 772 772 771 771 770 770 770 769 769 769 768 768 768 767 767 766 765 765 765 764 763 762 761 761 760 760 759 758 758 757 756
778 777 777 776 776 776 775 775 775 775 775 776 776 776 776 777 777 777 777 776 775 775 774 774 773 773 773 773 773 773 773 773 773 773 772 772 772 771 771 770 770 770 769 769 769 768 768 768 767 767 766 766 765 765 764 764 763 762 761 761 760 759 759 758 757 757 756 755 755
777 777 777 776 776 776 776 776 776 776 776 776 776 776 777 777 777 777 776 776 775 775 774 774 773 773 773 773 772 772 772 772 772 772 771 771 771 770 770 770 769 769 768 768 768 767 767 767 766 766 765 765 764 764 763 762 761 760 760 759 758 758 757 756 756 755 754 754 753
778 778 778 777 777 777 777 776 776 776 776 776 776 777 777 777 777 777 776 776 775 775 774 774 773 773 772 772 772 772 772 771 771 771 770 770 770 770 769 769 768 768 768 767 767 766 766 766 765 765 764 764 763 762 761 760 760 759 758 757 757 756 755 755 754 753 752 752 751
779 779 778 778 778 778 778 777 777 777 777 777 777 777 777 777 777 776 776 775 775 774 774 773 773 773 772 772 772 772 771 771 770 770 770 769 769 769 768 768 768 767 767 766 766 766 765 765 764 764 763 762 762 761 760 759 758 757 756 756 755 754 754 753 752 751 751 750 749
779 779 779 779 779 779 779 778 778 778 777 777 777 777 777 777 776 776 775 775 774 774 774 773 773 773 772 772 772 771 771 770 770 769 769 768 768 768 768 767 767 767 766 766 765 765 764 764 763 763 762 761 760 760 759 758 757 756 755 754 753 753 752 751 750 750 749 748 747
779 779 780 780 780 780 779 779 778 778 778 777 777 777 777 777 776 775 775 775 774 774 774 773 773 773 772 772 771 770 770 769 769 768 768 768 767 767 767 767 766 766 765 765 765 764 763 763 762 761 761 760 760 759 758 757 755 755 754 753 752 751 750 750 749 748 747 746 745
780 780 780 780 780 780 779 779 778 778 778 777 777 777 777 776 776 775 775 775 774 774 774 773 773 772 772 771 770 770 769 769 768 768 767 767 767 767 766 766 766 765 765 764 764 763 762 762 761 760 760 759 759 758 756 755 754 753 752 751 750 749 748 748 747 746 745 744 743
780 780 780 780 780 780 779 779 778 778 777 777 777 776 776 776 776 775 775 775 774 774 773 773 772 772 771 770 770 769 769 768 768 767 767 767 766 766 766 765 765 765 764 763 763 762 761 761 760 759 759 758 757 756 755 754 753 752 751 750 749 748 747 746 745 745 744 742 741
780 780 780 780 780 779 779 779 778 778 777 777 776 776 776 775 775 775 774 774 774 773 773 772 772 771 770 770 770 769 768 768 767 767 767 766 766 766 765 765 764 764 763 763 762 761 760 760 759 758 758 757 756 755 754 753 752 750 749 749 748 747 746 745 744 743 742 741 740